Wind_Speed
16 16 17 18 18 18 18 19 18 18 19 19 19 19 19 19 19 19 20 19 19 19 18 18 18 17 17 17 17 17 18 18 18 18 18 18 18 18
18 18 18 19 18 19 20 20 20 20 19 20 20 20 20 20 21 20 20 20 20 19 19 19 19 18 18 19 18 18 18 18 18 18 18 18 19 19
19 19 19 19 20 20 21 21 22 21 21 20 21 21 21 21 22 21 21 21 21 20 20 19 19 20 19 19 18 18 18 18 18 18 18 18 18 19
19 19 19 20 21 21 21 22 22 22 21 21 20 21 21 21 21 22 22 22 21 21 21 21 20 19 19 19 19 19 19 19 19 19 19 18 18 19
20 20 20 20 20 20 21 22 22 22 22 21 21 21 21 21 21 22 23 23 22 22 22 22 21 20 20 20 21 21 21 20 20 20 20 19 19 19
20 21 21 21 21 21 21 22 23 22 22 22 23 23 23 22 21 22 22 22 22 22 22 22 22 22 21 21 22 21 21 21 21 20 20 20 20 20
20 20 21 22 22 22 22 22 22 22 22 22 23 23 23 23 23 22 23 23 22 22 22 21 21 22 22 23 23 23 22 22 22 22 21 21 21 21
20 21 22 22 22 22 22 22 22 22 22 23 23 23 24 24 23 23 22 22 22 21 21 21 21 22 22 22 23 23 23 23 23 23 22 23 23 22
21 21 21 22 23 23 23 23 22 23 23 23 23 23 23 23 23 22 23 22 22 22 21 21 22 22 22 22 23 24 24 24 23 23 24 24 24 24
22 22 22 23 23 23 23 23 23 23 23 24 23 23 23 23 23 22 22 22 21 22 22 22 22 22 22 23 23 23 23 24 24 24 24 24 24 24
22 23 23 23 23 23 24 24 24 24 24 24 24 24 23 23 22 22 22 22 22 22 22 22 22 22 22 22 22 22 22 23 24 25 25 24 24 25
22 22 23 23 23 23 23 23 23 24 24 23 23 23 23 22 22 22 22 22 22 22 23 23 22 21 21 21 21 20 21 21 22 23 24 24 24 24
22 23 23 22 23 23 23 23 23 23 23 23 22 22 21 22 22 23 23 23 22 22 22 23 23 22 21 21 21 20 20 20 20 21 22 22 22 22
22 23 23 23 23 23 23 22 22 23 23 23 22 22 22 22 23 23 23 22 22 22 22 22 22 22 21 21 21 21 20 20 20 20 20 21 21 22
22 23 23 24 24 23 23 22 23 23 23 23 22 22 22 23 23 22 22 22 22 22 22 22 21 21 21 20 20 20 21 21 20 20 21 21 21 22
23 24 24 24 23 23 22 22 23 22 22 22 22 22 23 23 22 22 22 22 22 21 22 22 21 21 21 21 20 20 20 21 20 20 21 20 21 21
24 24 24 24 24 23 23 23 23 22 21 21 22 22 22 22 22 21 21 22 23 22 22 22 21 20 20 21 20 20 20 20 20 21 21 21 21 22
24 25 24 24 23 23 22 22 22 22 21 21 21 21 21 21 21 20 20 21 22 22 22 22 21 21 20 20 20 20 20 21 21 21 22 22 22 23
23 24 24 23 22 21 21 21 21 21 22 21 20 20 21 21 21 20 20 21 21 21 21 21 21 21 20 20 20 20 20 21 22 22 22 22 22 23
23 22 22 22 21 21 21 21 21 22 22 21 20 20 20 20 20 20 20 20 20 20 19 20 20 20 20 20 19 19 20 20 21 22 22 22 23 23
22 22 21 20 20 20 21 21 21 21 20 20 19 19 19 19 19 19 19 19 19 19 19 19 19 20 20 20 20 19 20 20 21 20 21 22 22 22
21 21 21 21 20 20 20 20 20 20 20 19 19 19 19 19 18 18 18 18 19 18 18 19 19 20 19 20 20 20 21 21 21 21 21 21 22 22
21 21 20 20 20 20 20 19 20 20 20 20 20 19 18 17 18 19 19 18 18 18 19 19 19 19 19 20 21 21 21 22 22 22 22 22 22 23
Wind_Direction
281 280 279 279 277 273 271 269 268 269 272 274 275 273 270 271 274 275 274 272 271 272 273 273 271 265 263 261 261 260 258 258 260 257 257 255 255 255
280 279 278 277 276 275 273 271 269 268 269 271 272 272 270 269 272 275 274 273 271 272 271 271 269 266 264 262 260 258 257 256 256 257 257 257 257 256
278 278 276 275 276 276 276 273 271 270 269 270 271 273 273 269 269 272 272 271 271 270 270 270 267 265 262 262 261 260 259 259 259 258 257 257 257 257
277 276 276 276 278 277 277 277 275 272 269 270 273 274 275 272 270 270 271 271 271 271 269 268 266 263 261 260 260 261 261 261 261 259 256 255 257 259
275 275 276 276 277 277 276 276 275 274 272 270 270 272 272 272 272 271 272 274 270 269 268 266 264 263 263 261 259 259 260 260 260 258 257 256 258 260
275 275 275 277 278 278 277 276 276 275 273 271 269 271 272 272 270 270 271 272 270 268 267 266 264 262 262 262 260 260 259 259 258 258 256 257 258 259
279 277 276 276 276 276 276 276 275 275 273 273 271 271 273 274 272 271 270 269 269 268 267 267 265 263 262 261 259 258 259 259 258 256 255 257 258 260
281 279 277 276 276 276 275 274 274 274 273 273 271 272 273 275 273 271 270 268 268 268 266 265 264 264 264 261 258 258 258 259 257 256 256 258 259 259
283 281 278 277 275 276 275 275 274 273 273 272 270 271 273 275 274 271 270 268 268 268 266 266 265 265 265 263 262 259 257 256 257 257 258 259 258 258
283 281 280 278 277 276 276 275 274 274 275 273 271 271 271 272 272 272 270 268 270 270 267 265 266 265 264 264 265 261 257 255 256 257 258 259 258 258
284 282 280 278 277 275 274 273 273 274 276 275 273 272 272 270 270 271 269 270 270 269 267 265 264 263 264 266 264 262 259 256 257 257 258 256 256 256
286 284 281 279 277 275 275 274 274 275 276 276 275 274 272 270 268 269 269 269 270 268 267 265 264 264 265 264 262 261 260 257 258 258 258 256 256 255
287 285 282 280 278 276 275 273 272 273 274 275 275 274 271 270 269 268 268 269 269 267 268 268 265 264 262 261 261 261 260 258 258 259 258 256 257 258
284 284 283 280 278 277 276 274 273 273 273 274 274 272 272 272 271 270 269 269 268 269 269 269 266 263 261 259 259 260 259 258 259 260 260 258 258 259
284 285 285 282 280 277 275 274 274 274 273 272 271 270 271 272 272 270 269 269 269 270 270 268 266 262 261 259 258 258 258 258 260 262 261 259 259 258
284 284 283 281 277 276 274 275 276 275 273 272 271 271 270 270 269 268 267 271 271 272 271 269 267 263 260 259 257 257 258 258 259 261 259 260 260 260
284 282 282 280 277 274 272 275 276 275 273 274 273 271 270 270 270 269 269 271 271 272 270 266 265 264 260 258 256 257 257 257 259 261 260 260 259 259
282 282 281 280 277 275 274 272 272 272 272 273 273 272 270 271 269 269 272 272 271 270 267 264 261 259 258 257 257 256 255 256 260 262 262 262 262 262
281 282 281 280 275 273 271 271 270 270 270 270 270 270 270 270 271 271 273 272 269 269 266 264 261 258 257 257 257 257 256 257 261 262 263 262 262 265
280 280 280 278 273 271 270 271 270 268 268 267 267 269 269 269 271 274 275 274 270 268 266 264 260 257 256 254 255 257 258 260 263 265 265 265 264 265
282 281 277 275 273 271 269 270 270 268 266 266 266 267 269 269 271 273 273 272 269 266 264 263 260 256 255 254 255 257 260 263 266 266 265 264 265 266
285 284 278 273 272 270 268 266 266 266 265 266 267 268 268 269 270 271 271 271 271 266 265 262 259 258 256 257 259 260 262 264 266 266 266 267 267 267
286 284 281 277 273 268 266 264 265 266 266 265 268 270 271 271 270 268 266 268 269 266 264 264 261 260 260 259 262 262 263 265 265 267 267 268 269 270
Height
5838 5838 5837 5836 5836 5835 5835 5835 5835 5835 5835 5834 5833 5832 5832 5831 5831 5830 5830 5829 5829 5828 5828 5827 5827 5826 5826 5826 5826 5825 5825 5826 5826 5826 5826 5826 5827 5827
5832 5832 5831 5830 5830 5829 5828 5828 5828 5829 5829 5828 5827 5827 5826 5826 5825 5824 5824 5823 5823 5822 5822 5822 5821 5821 5821 5821 5820 5820 5820 5821 5821 5821 5821 5821 5822 5822
5826 5825 5825 5824 5824 5823 5822 5822 5821 5822 5822 5821 5820 5820 5819 5819 5819 5818 5818 5817 5817 5817 5816 5816 5816 5815 5815 5815 5815 5815 5815 5815 5815 5816 5816 5816 5817 5817
5820 5819 5819 5818 5817 5816 5816 5815 5815 5814 5815 5814 5813 5813 5812 5812 5812 5812 5811 5811 5811 5810 5810 5809 5809 5809 5809 5809 5809 5810 5810 5810 5810 5810 5810 5811 5811 5811
5813 5812 5812 5811 5811 5810 5809 5808 5808 5808 5807 5807 5807 5806 5806 5805 5805 5804 5804 5804 5804 5803 5803 5803 5803 5803 5803 5803 5803 5803 5804 5804 5804 5804 5804 5805 5805 5806
5806 5805 5805 5805 5804 5803 5802 5802 5801 5801 5801 5800 5800 5799 5799 5798 5798 5798 5797 5797 5797 5797 5796 5796 5796 5796 5797 5797 5797 5797 5797 5797 5798 5798 5798 5799 5800 5800
5799 5798 5798 5797 5797 5796 5795 5795 5794 5794 5794 5793 5793 5793 5792 5791 5791 5791 5790 5790 5790 5790 5790 5790 5790 5790 5790 5790 5790 5790 5790 5791 5791 5792 5792 5793 5793 5794
5792 5791 5791 5790 5789 5788 5788 5788 5787 5787 5787 5786 5786 5785 5785 5784 5784 5784 5783 5783 5783 5784 5783 5783 5782 5783 5782 5782 5782 5782 5783 5784 5784 5785 5785 5786 5787 5787
5786 5785 5784 5783 5782 5781 5781 5780 5780 5779 5780 5779 5779 5778 5778 5777 5777 5776 5776 5776 5776 5776 5776 5775 5775 5775 5775 5775 5775 5775 5775 5776 5777 5778 5778 5779 5779 5780
5780 5778 5777 5776 5775 5774 5774 5773 5773 5772 5772 5771 5771 5771 5770 5770 5769 5769 5769 5769 5768 5768 5768 5768 5768 5768 5768 5768 5767 5767 5768 5768 5769 5770 5770 5771 5771 5772
5773 5772 5771 5769 5768 5768 5767 5766 5765 5765 5764 5764 5763 5763 5762 5762 5762 5762 5761 5761 5761 5761 5760 5760 5761 5760 5760 5760 5760 5760 5760 5761 5761 5762 5763 5763 5764 5765
5767 5765 5764 5762 5761 5760 5760 5759 5759 5758 5757 5756 5756 5755 5755 5755 5754 5754 5754 5754 5754 5754 5753 5753 5753 5753 5753 5753 5753 5753 5754 5754 5754 5755 5756 5756 5757 5757
5760 5758 5757 5755 5754 5753 5752 5752 5752 5751 5750 5749 5749 5748 5748 5748 5747 5747 5747 5747 5747 5747 5746 5746 5746 5745 5746 5746 5747 5747 5747 5747 5748 5748 5749 5749 5750 5751
5753 5751 5750 5748 5747 5746 5745 5745 5744 5744 5743 5743 5742 5742 5741 5741 5740 5740 5740 5739 5739 5739 5739 5739 5739 5738 5739 5740 5740 5741 5741 5741 5742 5742 5743 5743 5744 5745
5745 5744 5742 5741 5740 5739 5738 5737 5737 5736 5736 5736 5735 5735 5735 5734 5733 5733 5733 5732 5732 5732 5732 5731 5731 5731 5732 5733 5734 5734 5735 5736 5736 5736 5737 5737 5738 5739
5738 5737 5735 5733 5732 5732 5731 5730 5730 5729 5729 5729 5728 5728 5727 5727 5727 5726 5726 5726 5726 5725 5725 5725 5724 5725 5725 5726 5727 5728 5729 5729 5730 5731 5731 5731 5732 5732
5731 5729 5728 5726 5725 5724 5723 5723 5723 5723 5722 5722 5721 5720 5720 5720 5720 5720 5720 5719 5719 5719 5718 5718 5718 5718 5719 5720 5721 5721 5722 5723 5723 5724 5724 5725 5725 5726
5723 5721 5720 5718 5717 5717 5717 5716 5716 5716 5715 5715 5714 5714 5713 5713 5713 5713 5713 5713 5712 5711 5711 5711 5711 5712 5713 5714 5715 5715 5716 5716 5717 5717 5718 5718 5719 5719
5715 5714 5712 5711 5710 5710 5710 5709 5709 5709 5709 5708 5708 5708 5707 5707 5707 5707 5706 5705 5705 5705 5704 5704 5705 5706 5707 5708 5708 5709 5710 5710 5710 5711 5711 5711 5712 5712
5707 5706 5705 5704 5703 5703 5703 5702 5702 5702 5701 5702 5702 5701 5701 5701 5700 5700 5699 5698 5698 5698 5698 5698 5699 5699 5700 5702 5702 5703 5703 5703 5704 5704 5704 5704 5704 5704
5701 5700 5698 5697 5697 5696 5696 5696 5696 5696 5696 5695 5695 5695 5695 5695 5694 5694 5693 5693 5692 5692 5693 5693 5693 5693 5694 5695 5696 5697 5697 5697 5697 5697 5697 5697 5697 5697
5694 5693 5692 5691 5690 5690 5690 5690 5690 5690 5690 5690 5689 5689 5689 5689 5688 5688 5687 5687 5687 5687 5687 5687 5687 5687 5688 5689 5690 5690 5690 5690 5690 5690 5690 5690 5689 5689
5688 5687 5685 5684 5683 5683 5683 5683 5684 5684 5684 5684 5684 5683 5683 5682 5682 5682 5682 5681 5681 5681 5681 5681 5682 5682 5682 5683 5683 5684 5683 5683 5683 5683 5683 5682 5682 5682